Location: Berlin
(38.3226°N, 75.2177°W)
Time: 15:43:50
(UTC+00:00)

Cosmos 1626 - Pass Details

Date: 26 October 2020
Orbit: 491 x 494 km, 82.5° (Epoch: 25 November)

Event Time Altitude Azimuth Distance (km) Brightness Sun altitude
Rises 09:00:21 0° 161° (SSE) 2,558 5.9 -28.2°
Reaches altitude 10° 09:02:40 10° 149° (SSE) 1,681 5.1 -27.8°
Maximum altitude 09:05:47 27° 91° (E) 988 4.2 -27.2°
Drops below altitude 10° 09:08:55 10° 33° (NNE) 1,692 5.2 -26.5°
Sets 09:11:15 0° 20° (NNE) 2,578 6.1 -26.1°
